Location: Kailua
(21.4020°N, 157.7390°W)
Time: 08:56:16
(UTC-10:00)

Daily predictions for brighter satellites

Satellite Brightness Start Highest point End
(mag) Time Altitude Azimuth Time Altitude Azimuth Time Altitude Azimuth
SL-16 R/B 4.0 18:13:46 10° ESE 18:16:00 12° E 18:18:13 10° ENE
Cosmos 2084 4.0 18:11:57 10° SW 18:16:17 59° WNW 18:20:22 10° NNE
Cosmos 1515 3.9 18:14:01 10° SSE 18:17:39 47° E 18:21:17 10° NNE
Cosmos 2322 Rocket 3.9 18:18:20 10° SE 18:20:58 13° E 18:23:35 10° ENE
METEOR-M 4.5 18:17:55 10° SE 18:22:55 42° ENE 18:27:55 10° N
Cosmos 2360 4.4 18:17:49 10° S 18:23:23 56° ESE 18:28:57 10° NNE
SL-8 R/B 3.7 18:19:17 10° SW 18:24:06 88° SE 18:28:56 10° NE
CSL-04 Rocket 4.1 18:19:52 10° S 18:25:12 68° WSW 18:30:38 10° NNW
Cosmos 1743 4.2 18:22:30 10° NNW 18:26:11 42° W 18:29:52 10° SSW
EO 1 Del DPAF 3.2 18:22:51 10° NNE 18:26:38 65° ESE 18:30:24 10° S
Okean 2 3.4 18:25:18 10° S 18:29:20 58° E 18:33:21 10° NNE
GOES 2 Rocket 3.9 18:26:09 10° WNW 18:30:08 35° N 18:34:12 13° ENE
Cosmos 158 Rocket 3.8 18:26:59 10° N 18:31:54 62° ENE 18:36:43 10° SSE
SKYMED 2 3.8 18:30:00 10° N 18:34:19 75° WNW 18:38:37 10° SSW
Intelsat 5-3 Rocket 2.8 18:26:23 10° W 18:34:20 84° NNW 18:37:11 15° ENE
ISS -2.5 18:32:53 10° N 18:35:31 22° NE 18:37:22 14° E
ERS-2 3.0 18:32:32 10° SE 18:35:41 28° ENE 18:38:51 10° NNE
Cosmos 1697 Rocket 3.7 18:31:28 10° SW 18:36:54 48° WNW 18:42:19 10° N
Skynet4D Del rocket 4.1 18:32:47 10° WNW 18:38:51 49° N 18:43:14 16° ENE
Cosmos 468 4.5 18:34:20 10° NNW 18:39:38 81° ENE 18:44:53 10° SSE
GPS 2-17 Rocket1 3.2 18:43:19 10° W 18:47:38 63° S 18:51:11 14° ESE
Meteor 1-15 Rocket 4.3 18:41:58 10° N 18:47:46 58° E 18:53:29 10° SSE
USA 215 3.4 18:42:03 10° ESE 18:48:21 53° NE 18:54:39 10° NNW
ATLAS 3B R/B 2.5 18:42:12 10° NNW 18:48:43 68° ENE 18:55:09 10° SSE
DMSP B5D1-3 4.5 18:45:35 10° NNE 18:50:42 87° ESE 18:55:48 10° SSW
Cosmos 2344 3.9 18:47:38 10° S 18:55:19 45° ESE 19:00:43 18° NE
Cosmos 1892 Rocket 4.0 18:51:19 10° SSE 18:55:30 41° E 18:58:37 17° NNE
YAOGAN 1 3.0 18:51:19 10° S 18:55:36 65° W 18:59:53 10° NNW
SPOT 3 Rocket 3.6 18:51:12 10° SSE 18:56:14 54° ENE 19:01:15 10° N
Cosmos 2082 3.6 18:54:47 10° NNW 19:00:25 87° ENE 19:06:03 10° SSE
MONITOR-E 4.1 18:58:46 10° S 19:01:47 79° WSW 19:04:49 10° NNW
Delta 2 Rocket 4.5 19:00:09 10° NW 19:05:15 38° NNE 19:06:57 30° ENE
Shenzhou-11 Module 3.1 19:02:36 10° WSW 19:05:23 35° NW 19:06:18 28° N
MINOTAUR IV R/B 4.4 19:01:38 10° NNW 19:06:06 84° ENE 19:10:33 10° SSE
Cosmos 1184 Rocket 3.0 19:05:16 10° SSW 19:08:30 70° W 19:10:46 18° N
Tiangong 2 1.6 19:08:02 10° SSW 19:11:03 42° SE 19:11:06 42° SE
Cosmos 2227 Rocket 3.0 19:06:28 10° NNW 19:11:56 53° WSW 19:17:22 10° S
Cosmos 2360 Rocket 3.9 19:13:06 10° SE 19:14:45 15° SE 19:14:45 15° SE
SWIFT 2.3 19:13:41 10° WSW 19:17:51 71° S 19:18:53 48° ESE
STPSAT 2 (USA 217) 4.4 19:13:20 10° NNW 19:17:52 77° ENE 19:22:23 10° SSE
Cosmos 1980 Rocket 3.6 19:12:54 10° SW 19:18:01 36° WNW 19:23:12 10° N
Thor Agena Rocket 3.5 19:14:07 16° NNE 19:18:24 76° ESE 19:23:40 10° S
Cosmos 1066 Rocket 4.3 19:13:39 10° S 19:19:16 78° W 19:24:45 10° N
Lacrosse 5 rocket 1.3 19:15:16 10° SW 19:19:16 79° NW 19:20:36 42° NNE
Cosmos 494 Rocket 4.1 19:19:11 10° N 19:24:13 46° ENE 19:29:13 10° SSE
S3M 3.8 19:18:55 10° S 19:25:04 84° E 19:31:11 10° N
RESURS DK-1 4.4 19:25:30 10° SW 19:28:55 25° WNW 19:32:12 11° NNW
GPS 2-04 Rocket1 2.5 19:25:40 10° WSW 19:28:52 71° WNW 19:28:52 71° WNW
CENTAUR R/B 4.4 19:23:03 10° N 19:26:25 20° NNE 19:26:25 20° NNE
ASC 2 Rocket 2.7 19:26:06 10° WSW 19:30:07 89° N 19:30:28 75° ENE
GPS 2-15 Rocket1 4.1 19:27:00 10° W 19:31:23 41° SSW 19:33:02 30° SSE
Atlas 2A Centaur Rocket 1.9 19:28:09 10° WNW 19:37:04 85° SSW 19:37:17 78° SE
Cosmos 1238 Rocket 4.1 19:32:43 10° SSE 19:36:02 39° SE 19:36:02 39° SE
Cosmos 2297 Rocket 3.8 19:33:21 10° NW 19:38:23 34° WSW 19:43:25 10° SSW
Atlas Centaur 2 1.6 19:37:02 10° WNW 19:41:26 69° NW 19:41:26 69° NW
ALOS 3.9 19:40:31 10° SSW 19:44:43 34° W 19:48:56 10° NW
Hubble Space Telescope 1.9 19:49:49 10° WNW 19:52:42 42° W 19:52:42 42° W
Milstar 3 Cent rocket 4.1 19:43:03 10° SW 19:53:59 31° SSE 19:56:05 28° SE
CZ-3C R/B 3.5 19:20:40 10° W 19:56:02 57° SSW 19:58:29 36° SSE
SL-16 R/B 2.8 19:54:04 10° SSW 19:59:33 52° WNW 20:01:14 39° NNW
Cosmos 2322 Rocket 3.0 19:59:09 10° SW 20:04:29 47° WNW 20:05:53 39° NNW
Cosmos 883 Rocket 4.5 20:03:21 10° S 20:09:38 78° W 20:10:01 75° NW
Cosmos 839 Rocket 4.0 20:05:15 10° SSW 20:10:51 77° SSW 20:10:51 77° SSW
ISS -0.3 20:09:50 10° W 20:10:11 11° W 20:10:11 11° W
Cosmos 1745 Rocket 4.4 20:22:15 50° NW 20:23:23 58° W 20:29:31 10° S
